| time (UTC) | temp F | wind direction | speed knots | gust knots | rain 1hr in | rain 24hr in | rain mn in | humidity % | barometer mb |
| 20260505213057 | 50 | 333 | 1.7 | 4.3 | 0.00 | 0.00 | 0.00 | 83 | 1012.1 |
| 20260505211553 | 50 | 355 | 0.9 | 3.5 | 0.00 | 0.00 | 0.00 | 83 | 1012.0 |
| 20260505210052 | 50 | 355 | 0.9 | 4.3 | 0.00 | 0.00 | 0.00 | 82 | 1012.1 |
| 20260505204553 | 50 | 5 | 1.7 | 4.3 | 0.00 | 0.00 | 0.00 | 81 | 1012.0 |
| 20260505203051 | 51 | 5 | 2.6 | 4.3 | 0.00 | 0.00 | 0.00 | 81 | 1011.9 |
| 20260505201556 | 51 | 350 | 1.7 | 5.2 | 0.00 | 0.00 | 0.00 | 80 | 1011.8 |
| 20260505200050 | 51 | 348 | 2.6 | 5.2 | 0.00 | 0.00 | 0.00 | 80 | 1011.7 |
| 20260505194552 | 51 | 348 | 1.7 | 7.0 | 0.00 | 0.00 | 0.00 | 80 | 1011.4 |
| 20260505193049 | 51 | 11 | 2.6 | 7.8 | 0.00 | 0.00 | 0.00 | 79 | 1011.3 |
| 20260505191602 | 52 | 360 | 1.7 | 9.6 | 0.00 | 0.00 | 0.00 | 77 | 1011.5 |
| 20260505190057 | 52 | 355 | 3.5 | 8.7 | 0.00 | 0.00 | 0.00 | 76 | 1011.4 |
| 20260505184548 | 52 | 315 | 3.5 | 10.4 | 0.00 | 0.00 | 0.00 | 76 | 1011.1 |
| 20260505183110 | 52 | 355 | 5.2 | 11.3 | 0.00 | 0.00 | 0.00 | 76 | 1011.2 |
| 20260505181546 | 53 | 344 | 4.3 | 10.4 | 0.00 | 0.00 | 0.00 | 77 | 1011.2 |
| 20260505180047 | 53 | 355 | 2.6 | 10.4 | 0.00 | 0.00 | 0.00 | 77 | 1011.2 |
| 20260505174545 | 54 | 360 | 3.5 | 11.3 | 0.00 | 0.00 | 0.00 | 75 | 1011.3 |
| 20260505173051 | 54 | 320 | 5.2 | 10.4 | 0.00 | 0.00 | 0.00 | 74 | 1011.5 |
| 20260505171551 | 54 | 337 | 5.2 | 11.3 | 0.00 | 0.00 | 0.00 | 74 | 1011.4 |
| 20260505170043 | 54 | 5 | 5.2 | 13.0 | 0.00 | 0.00 | 0.00 | 74 | 1011.5 |
| 20260505164543 | 55 | 355 | 6.1 | 11.3 | 0.00 | 0.00 | 0.00 | 73 | 1011.4 |
| 20260505163042 | 55 | 355 | 7.0 | 12.2 | 0.00 | 0.00 | 0.00 | 74 | 1011.4 |
| 20260505161548 | 56 | 346 | 6.1 | 13.9 | 0.00 | 0.00 | 0.00 | 73 | 1011.3 |
| 20260505153038 | 56 | 333 | 4.3 | 11.3 | 0.00 | 0.00 | 0.00 | 72 | 1011.6 |
| 20260505151537 | 56 | 350 | 5.2 | 10.4 | 0.00 | 0.00 | 0.00 | 70 | 1011.5 |
| 20260505124527 | 56 | 5 | 7.0 | 13.0 | 0.00 | 0.00 | 0.00 | 73 | 1011.9 |
| 20260505123027 | 55 | 5 | 6.1 | 13.0 | 0.00 | 0.00 | 0.00 | 73 | 1011.9 |
| 20260505121531 | 55 | 5 | 7.8 | 13.0 | 0.00 | 0.00 | 0.00 | 72 | 1012.1 |
| 20260505120052 | 55 | 341 | 5.2 | 12.2 | 0.00 | 0.00 | 0.00 | 72 | 1011.9 |
| 20260505114524 | 55 | 293 | 5.2 | 11.3 | 0.00 | 0.00 | 0.00 | 70 | 1012.1 |
| 20260505113027 | 55 | 5 | 6.1 | 11.3 | 0.00 | 0.00 | 0.00 | 67 | 1012.1 |
| 20260505111524 | 55 | 348 | 7.0 | 13.0 | 0.00 | 0.00 | 0.00 | 68 | 1012.1 |
| 20260505101522 | 55 | 340 | 5.2 | 11.3 | 0.00 | 0.00 | 0.00 | 71 | 1012.6 |
| 20260505100021 | 55 | 17 | 5.2 | 10.4 | 0.00 | 0.00 | 0.00 | 71 | 1012.7 |
| 20260505094509 | 55 | 28 | 5.2 | 9.6 | 0.00 | 0.00 | 0.00 | 71 | 1012.5 |
| 20260505093006 | 54 | 343 | 4.3 | 10.4 | 0.00 | 0.00 | 0.00 | 71 | 1012.5 |
| 20260505091511 | 53 | 313 | 3.5 | 9.6 | 0.00 | 0.00 | 0.00 | 76 | 1012.4 |
| 20260505090100 | 53 | 348 | 4.3 | 11.3 | 0.00 | 0.00 | 0.00 | 74 | 1012.5 |
| 20260505084557 | 53 | 338 | 6.1 | 10.4 | 0.00 | 0.00 | 0.00 | 74 | 1012.6 |
| 20260505083054 | 53 | 5 | 2.6 | 10.4 | 0.00 | 0.00 | 0.00 | 77 | 1012.5 |
| 20260505081548 | 51 | 325 | 5.2 | 9.6 | 0.00 | 0.00 | 0.00 | 77 | 1012.7 |
| 20260505080046 | 50 | 343 | 3.5 | 9.6 | 0.00 | 0.00 | 0.00 | 80 | 1013.2 |
| 20260505074544 | 50 | 9 | 3.5 | 9.6 | 0.00 | 0.00 | 0.00 | 83 | 1013.1 |
| 20260505073059 | 50 | 340 | 3.5 | 7.0 | 0.00 | 0.00 | 0.00 | 85 | 1013.1 |
| 20260505071541 | 49 | 355 | 1.7 | 4.3 | 0.00 | 0.00 | 0.00 | 89 | 1013.0 |
| 20260505070040 | 49 | 355 | 1.7 | 5.2 | 0.00 | 0.00 | 0.00 | 90 | 1013.0 |
| 20260505064543 | 48 | 322 | 0.9 | 3.5 | 0.00 | 0.00 | 0.00 | 92 | 1013.2 |
| 20260505063038 | 48 | 355 | 0.9 | 2.6 | 0.00 | 0.00 | 0.00 | 93 | 1013.3 |
| 20260505061547 | 48 | 11 | 0.0 | 0.9 | 0.00 | 0.00 | 0.00 | 93 | 1013.3 |
| 20260505060034 | 48 | 11 | 0.0 | 1.7 | 0.00 | 0.00 | 0.00 | 93 | 1013.2 |
| 20260505054556 | 48 | 13 | 0.0 | 1.7 | 0.00 | 0.00 | 0.00 | 94 | 1013.1 |
| 20260505053034 | 48 | 13 | 0.0 | 0.0 | 0.00 | 0.00 | 0.00 | 94 | 1013.1 |
| 20260505051533 | 47 | 13 | 0.0 | 0.0 | 0.00 | 0.00 | 0.00 | 94 | 1013.1 |
| 20260505041527 | 47 | 334 | 0.0 | 3.5 | 0.00 | 0.00 | 0.00 | 94 | 1012.6 |
| 20260505040028 | 47 | 332 | 0.9 | 3.5 | 0.00 | 0.00 | 0.00 | 95 | 1012.6 |
| 20260505034526 | 47 | 26 | 0.0 | 1.7 | 0.00 | 0.00 | 0.00 | 95 | 1012.6 |
| 20260505033026 | 47 | 29 | 0.0 | 3.5 | 0.00 | 0.00 | 0.00 | 95 | 1012.6 |
| 20260505031539 | 47 | 21 | 0.9 | 1.7 | 0.00 | 0.00 | 0.00 | 95 | 1012.8 |
| 20260505030023 | 47 | 22 | 0.0 | 1.7 | 0.00 | 0.00 | 0.00 | 95 | 1012.8 |
| 20260505024532 | 47 | 22 | 0.0 | 1.7 | 0.00 | 0.00 | 0.00 | 95 | 1012.8 |
| 20260505023022 | 47 | 11 | 0.0 | 1.7 | 0.00 | 0.00 | 0.00 | 95 | 1012.9 |
| 20260505021525 | 47 | 335 | 0.0 | 1.7 | 0.00 | 0.00 | 0.00 | 94 | 1013.0 |
| 20260505020027 | 47 | 336 | 0.9 | 3.5 | 0.00 | 0.00 | 0.00 | 94 | 1013.1 |
| 20260505014525 | 48 | 360 | 0.9 | 1.7 | 0.00 | 0.00 | 0.00 | 94 | 1013.1 |
| 20260505013014 | 48 | 360 | 0.0 | 1.7 | 0.00 | 0.00 | 0.00 | 95 | 1013.2 |
| 20260505011523 | 48 | 360 | 0.0 | 0.0 | 0.00 | 0.00 | 0.00 | 95 | 1013.4 |
| 20260505010012 | 47 | 360 | 0.0 | 1.7 | 0.00 | 0.00 | 0.00 | 94 | 1013.3 |
| 20260505004526 | 48 | 360 | 0.0 | 1.7 | 0.00 | 0.00 | 0.00 | 93 | 1013.4 |
| 20260505003008 | 48 | 51 | 0.0 | 0.0 | 0.00 | 0.00 | 0.00 | 93 | 1013.4 |
| 20260505001507 | 49 | 51 | 0.0 | 0.0 | 0.00 | 0.00 | 0.00 | 93 | 1013.7 |
| 20260505000008 | 49 | 51 | 0.0 | 0.0 | 0.00 | 0.00 | 0.00 | 92 | 1013.7 |
| 20260504234504 | 49 | 51 | 0.0 | 0.0 | 0.00 | 0.00 | 0.00 | 92 | 1013.7 |
| 20260504233001 | 50 | 51 | 0.0 | 0.0 | 0.00 | 0.00 | 0.00 | 91 | 1013.5 |
| 20260504231602 | 50 | 51 | 0.0 | 0.0 | 0.00 | 0.00 | 0.00 | 90 | 1013.5 |
| 20260504230107 | 50 | 62 | 0.9 | 2.6 | 0.00 | 0.00 | 0.00 | 90 | 1013.4 |
| 20260504224558 | 51 | 62 | 0.0 | 0.9 | 0.00 | 0.00 | 0.00 | 89 | 1013.5 |
| 20260504223104 | 51 | 62 | 0.0 | 0.0 | 0.00 | 0.00 | 0.00 | 89 | 1013.7 |
| 20260504221604 | 52 | 62 | 0.0 | 1.7 | 0.00 | 0.00 | 0.00 | 88 | 1013.5 |
| 20260504220059 | 52 | 63 | 0.0 | 0.9 | 0.00 | 0.00 | 0.00 | 87 | 1013.6 |
| 20260504214557 | 53 | 63 | 0.9 | 2.6 | 0.00 | 0.00 | 0.00 | 87 | 1013.6 |